Location: Observatoire
(46.1952°N, 5.3391°E)
Time: 19:20:14
(UTC+01:00)

Altair - Pass Details

Date: 17 February 2026
Orbit: 1502 x 1682 km, 47.2° (Epoch: 10 March)

Event Time Altitude Azimuth Distance (km) Brightness Sun altitude
Rises 10:34:30 0° 289° (WNW) 4,708 9.6 24.1°
Reaches altitude 10° 10:37:32 10° 287° (WNW) 3,744 9.2 24.5°
Maximum altitude 10:46:57 69° 207° (SSW) 1,693 8.4 25.4°
Drops below altitude 10° 10:56:44 10° 127° (SE) 3,877 11.0 26.3°
Sets 10:59:55 0° 125° (SE) 4,881 11.2 26.6°
